NNS 30060

operational
NORAD ID: 1864 Int'l Des: 1965-109 Owner: BUWEPS Country: US
LEOPOLAR

NNS 30060について

説明を読み込み中...

リアルタイム位置

3D地球を読み込み中...

次回通過

高度履歴

Altitude vs Time

uPlot chart will show altitude changes over time

軌道要素

1 01864U 65109A 25340.78375245 .00000329 00000-0 29504-3 0 9992
2 01864 89.0658 254.3367 0111875 78.1820 283.1869 13.78992451 9584
Epoch: Dec 6, 2025 • Age: 18 hours

現在のステータス

高度 899.2 km
速度 7.45 km/s
衛星直下点 81.59°N, 5.16°W
タイプ other

大規模コンステレーション

Loading constellations...